Tracking 28790 objects as of 19-Apr-2024
HD Live streaming from Space Station
objects crossing your sky now

AMOS 3

Track AMOS 3 now!
AMOS 3 is classified as:


NORAD ID: 32794
Int'l Code: 2008-022A
Perigee: 35,785.7 km
Apogee: 35,801.3 km
Inclination: 0.0 °
Period: 1,436.1 minutes
Semi major axis: 42164 km
RCS: 30.7763 m2 (large)
Launch date: April 28, 2008
Source: Israel (ISRA)
Launch site: TYURATAM MISSILE AND SPACE COMPLEX (TTMTR)

AMOS-3 is to be placed in the same orbital location as AMOS-1 and AMOS-2, eventually replacing AMOS-1 with enhanced capabilities, including broadband coverage. AMOS-1 has been in orbit since 1996.
Your satellite tracking list
Your tracking list is empty




NASA's NSSDC Master Catalog

Two Line Element Set (TLE):
1 32794U 08022A   24109.24704473 -.00000041  00000-0  00000-0 0  9990
2 32794   0.0428  92.3673 0001840 255.6926 303.5976  1.00272684 74418
Source of the keplerian elements: AFSPC